When you browse on this site, cookies collect data to enhance your experience and personalize the content and advertising you see.
Visit our Privacy Policy to learn more. By continuing to use the site, you agree to this use of cookies and data.

Hourly Weather Kandi

Today, 2 July, Thursday

Time Temperature Precipitation Wind Pressure Humidity
00:00 +28°C° 0 mm 1 mps 737 mmHg 72%
01:00 +28°C° 0 mm 1 mps 736 mmHg 75%
02:00 +27°C° 0 mm 1 mps 736 mmHg 77%
03:00 +27°C° 0 mm 1 mps 736 mmHg 80%
04:00 +27°C° 0 mm 1 mps 736 mmHg 81%
05:00 +27°C° 0 mm 2 mps 736 mmHg 82%
06:00 +27°C° 0 mm 2 mps 737 mmHg 80%
07:00 +29°C° 0 mm 2 mps 737 mmHg 72%
08:00 +31°C° 0 mm 2 mps 737 mmHg 64%
09:00 +34°C° 0 mm 2 mps 737 mmHg 56%
10:00 +36°C° 0 mm 2 mps 737 mmHg 49%
11:00 +38°C° 0 mm 2 mps 737 mmHg 42%
12:00 +40°C° 0 mm 2 mps 737 mmHg 35%
13:00 +40°C° 0 mm 2 mps 736 mmHg 34%
14:00 +40°C° 0 mm 2 mps 735 mmHg 33%
15:00 +40°C° 0 mm 2 mps 734 mmHg 32%
16:00 +39°C° 0 mm 2 mps 734 mmHg 37%
17:00 +37°C° 0 mm 2 mps 734 mmHg 41%
18:00 +36°C° 0 mm 2 mps 734 mmHg 46%
19:00 +34°C° 0.1 mm 2 mps 735 mmHg 51%
20:00 +32°C° 0.1 mm 2 mps 735 mmHg 57%
21:00 +31°C° 0.1 mm 2 mps 736 mmHg 63%
22:00 +30°C° 0.2 mm 2 mps 736 mmHg 67%
23:00 +29°C° 0.2 mm 2 mps 736 mmHg 72%

Tomorrow, 3 July, Friday

Time Temperature Precipitation Wind Pressure Humidity
00:00 +29°C° 0.2 mm 2 mps 736 mmHg 76%
01:00 +28°C° 0 mm 2 mps 736 mmHg 78%
02:00 +28°C° 0 mm 2 mps 735 mmHg 79%
03:00 +28°C° 0 mm 2 mps 735 mmHg 81%
04:00 +27°C° 0 mm 3 mps 735 mmHg 81%
05:00 +27°C° 0 mm 3 mps 735 mmHg 82%
06:00 +27°C° 0 mm 3 mps 735 mmHg 82%
07:00 +29°C° 0 mm 3 mps 735 mmHg 75%
08:00 +30°C° 0 mm 3 mps 736 mmHg 68%
09:00 +33°C° 0 mm 3 mps 736 mmHg 61%
10:00 +35°C° 0 mm 3 mps 736 mmHg 55%
11:00 +37°C° 0 mm 2 mps 736 mmHg 49%
12:00 +39°C° 0 mm 2 mps 736 mmHg 42%
13:00 +39°C° 0 mm 2 mps 735 mmHg 41%
14:00 +39°C° 0 mm 2 mps 735 mmHg 40%
15:00 +39°C° 0 mm 1 mps 734 mmHg 39%
16:00 +37°C° 0.9 mm 2 mps 734 mmHg 50%
17:00 +34°C° 0.9 mm 3 mps 734 mmHg 61%
18:00 +30°C° 0.9 mm 4 mps 733 mmHg 72%
19:00 +29°C° 1.8 mm 3 mps 734 mmHg 77%
20:00 +28°C° 1.8 mm 3 mps 735 mmHg 82%
21:00 +27°C° 1.8 mm 3 mps 736 mmHg 87%
22:00 +27°C° 0.4 mm 2 mps 736 mmHg 87%
23:00 +27°C° 0.4 mm 2 mps 736 mmHg 87%

Day after tomorrow, 4 July, Saturday

Time Temperature Precipitation Wind Pressure Humidity
00:00 +27°C° 0.4 mm 2 mps 736 mmHg 88%
01:00 +27°C° 0.1 mm 2 mps 735 mmHg 87%
02:00 +26°C° 0.1 mm 3 mps 735 mmHg 87%
03:00 +26°C° 0.1 mm 3 mps 734 mmHg 87%
04:00 +26°C° 0 mm 3 mps 735 mmHg 87%
05:00 +26°C° 0 mm 4 mps 735 mmHg 87%
06:00 +26°C° 0 mm 4 mps 735 mmHg 87%
07:00 +27°C° 0 mm 4 mps 736 mmHg 83%
08:00 +28°C° 0 mm 4 mps 737 mmHg 80%
09:00 +29°C° 0 mm 4 mps 738 mmHg 76%
10:00 +29°C° 0.1 mm 4 mps 738 mmHg 74%
11:00 +29°C° 0.1 mm 4 mps 737 mmHg 72%
12:00 +30°C° 0.1 mm 4 mps 737 mmHg 70%
13:00 +32°C° 0 mm 4 mps 737 mmHg 65%
14:00 +33°C° 0 mm 3 mps 736 mmHg 60%
15:00 +34°C° 0 mm 2 mps 735 mmHg 54%
16:00 +32°C° 0 mm 2 mps 735 mmHg 58%
17:00 +31°C° 0 mm 2 mps 735 mmHg 61%
18:00 +31°C° 0 mm 3 mps 735 mmHg 64%
19:00 +30°C° 0 mm 2 mps 735 mmHg 69%
20:00 +29°C° 0 mm 2 mps 736 mmHg 73%
21:00 +28°C° 0 mm 1 mps 736 mmHg 77%
22:00 +28°C° 0 mm 1 mps 736 mmHg 79%
23:00 +27°C° 0 mm 2 mps 737 mmHg 81%

5 July, Sunday

Time Temperature Precipitation Wind Pressure Humidity
00:00 +27°C° 0 mm 2 mps 737 mmHg 83%
01:00 +27°C° 0 mm 2 mps 737 mmHg 84%
02:00 +27°C° 0 mm 2 mps 737 mmHg 86%
03:00 +26°C° 0 mm 1 mps 737 mmHg 87%
04:00 +26°C° 0 mm 2 mps 737 mmHg 87%
05:00 +26°C° 0 mm 2 mps 737 mmHg 87%
06:00 +26°C° 0 mm 2 mps 737 mmHg 88%
07:00 +28°C° 0 mm 2 mps 737 mmHg 79%
08:00 +29°C° 0 mm 3 mps 738 mmHg 70%
09:00 +31°C° 0 mm 3 mps 738 mmHg 62%
10:00 +33°C° 0 mm 3 mps 738 mmHg 56%
11:00 +35°C° 0 mm 3 mps 737 mmHg 51%
12:00 +36°C° 0 mm 2 mps 737 mmHg 46%
13:00 +37°C° 0 mm 2 mps 736 mmHg 44%
14:00 +37°C° 0 mm 2 mps 736 mmHg 42%
15:00 +36°C° 0 mm 1 mps 735 mmHg 41%
16:00 +35°C° 0 mm 1 mps 735 mmHg 45%
17:00 +34°C° 0 mm 1 mps 735 mmHg 48%
18:00 +33°C° 0 mm 1 mps 735 mmHg 52%
19:00 +31°C° 0.9 mm 1 mps 735 mmHg 61%
20:00 +29°C° 0.9 mm 1 mps 736 mmHg 70%
21:00 +28°C° 0.9 mm 1 mps 737 mmHg 79%
22:00 +28°C° 1.7 mm 1 mps 737 mmHg 81%
23:00 +27°C° 1.7 mm 1 mps 737 mmHg 83%

6 July, Monday

Time Temperature Precipitation Wind Pressure Humidity
00:00 +27°C° 1.7 mm 2 mps 737 mmHg 85%
01:00 +27°C° 0.4 mm 2 mps 737 mmHg 87%
02:00 +26°C° 0.4 mm 2 mps 736 mmHg 89%
03:00 +26°C° 0.4 mm 2 mps 736 mmHg 90%
04:00 +26°C° 0 mm 2 mps 736 mmHg 90%
05:00 +26°C° 0 mm 2 mps 736 mmHg 90%
06:00 +26°C° 0 mm 2 mps 736 mmHg 90%
07:00 +26°C° 0 mm 2 mps 737 mmHg 87%
08:00 +27°C° 0 mm 2 mps 737 mmHg 85%
09:00 +27°C° 0 mm 3 mps 737 mmHg 83%
10:00 +28°C° 0 mm 3 mps 737 mmHg 78%
11:00 +29°C° 0 mm 3 mps 736 mmHg 74%
12:00 +30°C° 0 mm 3 mps 736 mmHg 70%
13:00 +31°C° 0 mm 3 mps 736 mmHg 66%
14:00 +33°C° 0 mm 3 mps 735 mmHg 62%
15:00 +34°C° 0 mm 3 mps 735 mmHg 58%
16:00 +33°C° 0.1 mm 3 mps 735 mmHg 62%
17:00 +31°C° 0.1 mm 2 mps 735 mmHg 66%
18:00 +30°C° 0.1 mm 2 mps 735 mmHg 70%
19:00 +29°C° 0 mm 2 mps 735 mmHg 73%
20:00 +28°C° 0 mm 2 mps 736 mmHg 76%
21:00 +28°C° 0 mm 3 mps 736 mmHg 78%
22:00 +27°C° 0 mm 3 mps 736 mmHg 79%
23:00 +27°C° 0 mm 3 mps 736 mmHg 81%

7 July, Tuesday

Time Temperature Precipitation Wind Pressure Humidity
00:00 +27°C° 0 mm 3 mps 736 mmHg 82%
01:00 +26°C° 0.3 mm 3 mps 736 mmHg 84%
02:00 +26°C° 0.3 mm 3 mps 736 mmHg 86%
03:00 +25°C° 0.3 mm 3 mps 735 mmHg 88%
04:00 +25°C° 0 mm 3 mps 735 mmHg 89%
05:00 +25°C° 0 mm 4 mps 736 mmHg 89%
06:00 +25°C° 0 mm 4 mps 736 mmHg 89%
07:00 +27°C° 0 mm 4 mps 736 mmHg 83%
08:00 +28°C° 0 mm 4 mps 736 mmHg 76%
09:00 +29°C° 0 mm 4 mps 737 mmHg 70%
10:00 +31°C° 0 mm 3 mps 736 mmHg 62%
11:00 +34°C° 0 mm 3 mps 736 mmHg 54%
12:00 +36°C° 0 mm 3 mps 736 mmHg 46%
13:00 +37°C° 0 mm 2 mps 735 mmHg 43%
14:00 +38°C° 0 mm 2 mps 735 mmHg 41%
15:00 +38°C° 0 mm 2 mps 734 mmHg 38%
16:00 +36°C° 0 mm 1 mps 734 mmHg 43%
17:00 +34°C° 0 mm 1 mps 734 mmHg 48%
18:00 +33°C° 0 mm 1 mps 734 mmHg 53%
19:00 +32°C° 0.6 mm 1 mps 735 mmHg 61%
20:00 +30°C° 0.6 mm 2 mps 735 mmHg 69%
21:00 +29°C° 0.6 mm 2 mps 736 mmHg 78%
22:00 +28°C° 0 mm 2 mps 736 mmHg 79%
23:00 +28°C° 0 mm 3 mps 736 mmHg 81%
Show more